Regional Weather Roundup
Issued by NWS

Home | Current Version | Previous Version | Text Only | Print | Product List | Glossary On
Versions: 1 2 3 4 5 6 7 8 9 10 11 12 13 14 15 16 17 18 19 20 21 22 23 24 25 26 27 28 29 30 31 32 33 34 35 36 37 38 39 40 41 42 43 44 45 46 47 48 49 50
000
ASUS44 KJAN 301010
RWRMS

MISSISSIPPI HOURLY WEATHER ROUNDUP
NATIONAL WEATHER SERVICE JACKSON MS
400 AM CST FRI JAN 30 2015

NOTE: "FAIR: INDICATES FEW OR NO CLOUDS BELOW 12,000 FEET WITH NO
SIGNIFICANT WEATHER AND/OR OBSTRUCTIONS TO VISIBILITY.

MSZ001>002-007>008-010>013-018>021-025>028-034>036-301100-
NORTHWEST MISSISSIPPI

CITY           SKY/WX    TMP DP  RH WIND       PRES   REMARKS
CLARKSDALE     FAIR      34  32  93 NW6       30.44S WCI  29
CLEVELAND      FAIR      37  33  87 N7        30.43S WCI  31
GREENWOOD      PTCLDY    35  29  78 N6        30.41S WCI  30
GREENVILLE     CLEAR     35  30  82 N8        30.43S WCI  29
GRENADA        FAIR      34  30  86 CALM      30.42S
OLIVE BRANCH   MOCLDY    37  32  81 N8G17     30.42S WCI  31
OXFORD         FAIR      32  27  80 NW3       30.42R
TUNICA         SUNNY     34  30  86 N10       30.44S WCI  26
$$

MSZ003>006-009-014>017-022>024-029>033-037>039-301100-
NORTHEAST MISSISSIPPI

CITY           SKY/WX    TMP DP  RH WIND       PRES   REMARKS
COLUMBUS AFB   CLEAR     38  28  68 NW6       30.37S WCI  34
CORINTH        CLOUDY    43  28  56 N9        30.38S
GOLDN TRIANGLE CLEAR     37  28  70 NW5       30.36S WCI  34
STARKVILLE     FAIR      39  32  75 NW3       30.38R
TUPELO         CLEAR     38  27  64 N7        30.39R WCI  33
$$

MSZ040-058-301100-
CENTRAL MISSISSIPPI

CITY           SKY/WX    TMP DP  RH WIND       PRES   REMARKS
JACKSON INTL   CLEAR     41  33  73 N12       30.36F
JACKSON HAWKNS CLEAR     40  32  73 N5        30.37F
MERIDIAN KEY   PTCLDY    42  32  67 N15       30.35R
MERIDIAN NAS   PTCLDY    41  30  65 N12       30.36R
RAYMOND        FAIR      39  36  87 MISG      30.38S
VICKSBURG      PTCLDY    41  32  70 N13       30.41S
$$

MSZ059>079-301100-
SOUTH MISSISSIPPI

CITY           SKY/WX    TMP DP  RH WIND       PRES   REMARKS
BROOKHAVEN     FAIR      43  36  75 N7        30.36F
HATTIESBURG    PTCLDY    49  39  68 N12       30.33R
MCCOMB         PTCLDY    45  36  70 N7        30.34R
NATCHEZ        PTCLDY    43  32  65 N9        30.38S
PINE BELT      PTCLDY    45  36  70 NW8       30.33R
$$

MSZ080>082-301100-
COASTAL MISSISSIPPI

CITY           SKY/WX    TMP DP  RH WIND       PRES   REMARKS
BILOXI         PTCLDY    55  44  67 VRB5      30.26R
PASCAGOULA     PTCLDY    53  48  83 N5        30.26R
GULFPORT       CLEAR     54  43  66 N13       30.26R
$$


USA.gov is the U.S. government's official web portal to all federal, state and local government web resources and services.